Regional Weather Roundup
Issued by NWS

Home | Current Version | Previous Version | Text Only | Print | Product List | Glossary Off
Versions: 1 2 3 4 5 6 7 8 9 10 11 12 13 14 15 16 17 18 19 20 21 22 23 24 25 26 27 28 29 30 31 32 33 34 35 36 37 38 39 40 41 42 43 44 45 46 47 48 49 50

000
ASUS43 KLOT 031321
RWRIL

ILLINOIS REGIONAL WEATHER ROUNDUP
NATIONAL WEATHER SERVICE CHICAGO/ROMEOVILLE IL
800 AM CDT SUN MAY 03 2015

NOTE: "FAIR" INDICATES FEW OR NO CLOUDS BELOW 12,000 FEET WITH NO
SIGNIFICANT WEATHER AND/OR OBSTRUCTIONS TO VISIBILITY.

* THESE STATIONS ARE NOT UNDER NWS QUALITY CONTROL. THEY ALSO MAY NOT
  REPORT WEATHER SUCH AS PRECIPITATION OR FOG.

ILZ001-002-007-009-015-016-024-031400-
NORTHWEST ILLINOIS

CITY           SKY/WX    TMP DP  RH WIND       PRES   REMARKS
MOLINE         CLOUDY    59  52  77 S6        29.93R
STERLING*      CLOUDY    64  48  55 S8        29.95R
SAVANNA*       CLOUDY    62  48  59 S8        29.91S
$$

ILZ003-004-008-010-011-017-018-031400-
NORTH CENTRAL ILLINOIS

CITY           SKY/WX    TMP DP  RH WIND       PRES   REMARKS
ROCKFORD       CLOUDY    63  44  50 S12       29.96S
FREEPORT*      CLOUDY    61  46  58 S13       29.94F
ROCHELLE*      PTSUNNY   64  46  51 S12       29.97R
DE KALB*       PTSUNNY   60  45  58 S13       29.98R
PERU*          CLOUDY    62  46  55 S10       29.98R
$$

ILZ005-006-012>014-019>023-031400-
NORTHEAST ILLINOIS

CITY           SKY/WX    TMP DP  RH WIND       PRES   REMARKS
CHICAGO-OHARE  PTSUNNY   64  45  49 S12       29.97S
CHICAGO-MIDWAY PTSUNNY   64  46  52 S7        29.98F
AURORA         PTSUNNY   62  45  53 S9        29.98S
LANSING*       PTSUNNY   63  44  49 SW10      30.01S
JOLIET*        CLOUDY    63  48  59 S3        29.98F
WAUKEGAN       MOSUNNY   63  44  50 S8        29.96F
DUPAGE AIRPORT PTSUNNY   63  47  55 S9        29.97S
KANKAKEE*      MOSUNNY   65  48  55 S13       30.01F
WHEELING       MOSUNNY   64  45  49 S10       29.98F
MORRIS*        CLOUDY    61  46  59 S5        29.97R
ROMEOVILLE*    CLOUDY    63  45  52 S10       29.98F
NORTHERLY ISL    N/A     63  43  48 S10         N/A
$$

LMZ740>746-031400-
SOUTHERN LAKE MICHIGAN

STATION/POSITION SKY/WX   TEMP    WIND        PRES    VSBY  WAVE
                          AIR SEA DIR/SP/G                  HT/PER
                          (F)     (DEG/KT/KT) (MB)    (MI)  (FT/S)
HARRISON CRIB              62     180/ 14/ 16   N/A
BURNHAM HARBOR             64     180/  8/ 11   N/A
CALUMET HARBOR             61     190/  4/  7   N/A
BURNS HARBOR               61     190/ 11/ 14 1016.6S
MICHIGAN CITY              63     160/ 11/ 15   N/A
MICHIGAN CITY 6N           57 50  190/  6/  8   N/A           1
ST. JOSEPH                 55 48  210/  8/  8   N/A           1
$$

ILZ025>027-034>036-040-047-049-050-058-095>099-031400-
WEST-CENTRAL ILLINOIS

CITY           SKY/WX    TMP DP  RH WIND       PRES   REMARKS
QUINCY         MOSUNNY   63  48  58 S12       29.97R
GALESBURG*     CLOUDY    61  50  67 S7        29.96R
MACOMB*        CLOUDY    61  47  61 S10       29.98R
JACKSONVILLE*  CLOUDY    65  47  51 S9        29.99R
PITTSFIELD*    MOSUNNY   62  48  60 S7        30.00R
$$

ILZ028>032-037-038-041>044-048-051>054-059>061-031400-
CENTRAL ILLINOIS

CITY           SKY/WX    TMP DP  RH WIND       PRES   REMARKS
PONTIAC        CLOUDY    64  49  57 S13G18    30.00S
BLOOMINGTON    PTSUNNY   63  49  60 S10       30.02S
DECATUR        MOSUNNY   65  48  54 S10       30.03R
PEORIA         CLOUDY    64  47  53 S12       29.98S
LACON*         CLOUDY    62  46  55 S8        29.96S
LINCOLN*       MOSUNNY   63  47  54 S9        29.99S
SPRINGFIELD    PTSUNNY   66  47  50 S14       30.00R
TAYLORVILLE    MOSUNNY   63  46  55 S12       30.02S
$$

ILZ033-039-045-046-055>057-062-063-031400-
EAST-CENTRAL ILLINOIS

CITY           SKY/WX    TMP DP  RH WIND       PRES   REMARKS
CHAMPAIGN      MOSUNNY   67  46  47 S15       30.03S
DANVILLE*      PTSUNNY   61  49  65 S6        30.03S
RANTOUL*       PTSUNNY   67  47  49 S9        30.03S
MATTOON        MOSUNNY   64  48  56 S7        30.05R
PARIS*         SUNNY     65  50  59 S9        30.07S
$$

ILZ079-100>102-031400-
SOUTHWEST ILLINOIS

CITY           SKY/WX    TMP DP  RH WIND       PRES   REMARKS
ALTON          MOSUNNY   63 N/A N/A S9        30.03R
BELLEVILLE     MOSUNNY   61  49  65 CALM      30.03R
CAHOKIA*       MOSUNNY   64  48  56 S5        30.03R
SPARTA*        MOSUNNY   64  47  54 S8        30.06S
$$

ILZ064>066-069>071-074>076-080>082-084>086-088>090-092>094-031400-
SOUTH-CENTRAL ILLINOIS

CITY           SKY/WX    TMP DP  RH WIND       PRES   REMARKS
CARBONDALE     MOSUNNY   61  51  70 CALM      30.07R
CAIRO*         SUNNY     62  53  72 SE3       30.08S
EFFINGHAM*     MOSUNNY   64  45  49 S7        30.07R
MARION         MOSUNNY   63  50  63 SE6       30.09R
MT. VERNON     MOSUNNY  N/A N/A N/A S6        30.08R
CENTRALIA*     PTSUNNY   66  47  51 S7        30.05R
SALEM*         PTSUNNY   65  49  56 S6        30.06R
METROPOLIS*    MOSUNNY   59  54  82 CALM      30.08S
$$

ILZ067-068-072-073-078-083-087-091-031400-
SOUTHEAST ILLINOIS

CITY           SKY/WX    TMP DP  RH WIND       PRES   REMARKS
LAWRENCEVILLE  PTSUNNY   65  50  58 S10       30.08S
FLORA*         PTSUNNY   61  50  68 S7        30.07R
FAIRFIELD*     PTSUNNY   63  50  61 S6        30.06S
HARRISBURG*    MOSUNNY   61  51  69 CALM      30.09R
ROBINSON*      MOSUNNY   64  49  59 S8        30.09R
CARMI*         MOSUNNY   63  49  61 S6        30.08R
$$

ABBREVIATIONS USED IN REMARKS
   TC - TEMPERATURE IN CELSIUS
  WCI - WIND CHILL INDEX
   HX - HEAT INDEX
  VSB - VISIBILITY
$$




USA.gov is the U.S. government's official web portal to all federal, state and local government web resources and services.